Date String (YYYY-MM-DD hh:mm:ss) UTC,Instrument flags,absolute air pressure of the measurement (hPa),sample flow rate (lpm),inlet stack bypass flow (lpm),air temperature of the measurement (°C),ambient temperature measured by the external sensor (°C),aerosol sample conditioner tube jacket temperature (°C),OPC LED temperature (°C),internal box temperature (°C),relative humidity of the measurement (%),span deviation,mass concentration of particles derived from Lorenz-Mie calculation of OPC scattering (μg/m³),mass concentration of particles derived from Lorenz-Mie calculation of OPC scattering (μg/m³),mass concentration of particles derived from Lorenz-Mie calculation of OPC scattering (μg/m³)
DateTimeUTC,F1_M11,P_M11,Q1_M11,Q2_M11,T1_M11,T2_M11,T3_M11,T4_M11,T5_M11,U1_M11,ZSPAN_M11,X0_M11,X2_M11,X1_M11
2023-08-05 14:00:00,SystemResetWarning,0835.3,5.00,000.00,029.6,028.1,000.0,038.2,031.3,28.2,0000.0,0009.39,0004.61,0004.15
2023-08-05 14:01:00,SystemResetWarning,0835.4,5.01,000.00,029.7,028.3,000.0,038.2,031.3,29.0,0000.0,0009.16,0004.60,0004.16
2023-08-05 14:02:00,SystemResetWarning,0835.5,5.00,000.00,029.7,028.3,000.0,038.2,031.3,28.4,0000.0,0008.89,0004.60,0004.16
2023-08-05 14:03:00,SystemResetWarning,0835.5,4.99,000.00,029.7,028.4,000.0,038.2,031.3,28.6,0000.0,0008.86,0004.60,0004.16
2023-08-05 14:04:00,SystemResetWarning,0835.5,4.99,000.00,029.7,028.5,000.0,038.3,031.4,28.6,0000.0,0008.95,0004.62,0004.17
2023-08-05 14:05:00,SystemResetWarning,0835.5,5.00,000.00,029.8,028.4,000.0,038.3,031.4,28.1,0000.0,0009.33,0004.61,0004.17
2023-08-05 14:06:00,SystemResetWarning,0835.5,5.00,000.00,029.8,027.0,000.0,038.1,031.2,27.1,0000.0,0008.77,0004.61,0004.16
2023-08-05 14:07:00,SystemResetWarning,0835.5,5.00,000.00,029.7,025.4,000.0,038.0,030.9,27.4,0000.0,0008.52,0004.61,0004.17
2023-08-05 14:08:00,SystemResetWarning,0835.5,5.01,000.00,029.6,025.1,000.0,037.9,030.8,27.6,0000.0,0008.54,0004.61,0004.17
2023-08-05 14:09:00,SystemResetWarning,0835.5,5.01,000.00,029.5,025.4,000.0,038.0,030.6,28.2,0000.0,0007.96,0004.60,0004.18
2023-08-05 14:10:00,SystemResetWarning,0835.5,5.00,000.00,029.4,025.8,000.0,038.0,030.6,28.1,0000.0,0007.91,0004.60,0004.19
2023-08-05 14:11:00,SystemResetWarning,0835.5,5.00,000.00,029.3,026.2,000.0,038.0,030.7,28.8,0000.0,0007.96,0004.62,0004.21
2023-08-05 14:12:00,SystemResetWarning,0835.5,5.00,000.00,029.3,026.6,000.0,038.0,030.8,28.2,0000.0,0008.01,0004.62,0004.21
2023-08-05 14:13:00,SystemResetWarning,0835.5,5.00,000.00,029.3,026.9,000.0,038.0,030.9,28.5,0000.0,0008.09,0004.62,0004.22
2023-08-05 14:14:00,SystemResetWarning,0835.5,5.00,000.00,029.3,027.2,000.0,038.0,030.9,28.6,0000.0,0008.62,0004.65,0004.23
2023-08-05 14:15:00,SystemResetWarning,0835.5,5.00,000.00,029.4,027.4,000.0,038.0,030.9,28.1,0000.0,0008.62,0004.67,0004.24
2023-08-05 14:16:00,SystemResetWarning,0835.5,5.00,000.00,029.4,027.6,000.0,038.0,031.0,28.2,0000.0,0008.33,0004.69,0004.28
2023-08-05 14:17:00,SystemResetWarning,0835.5,5.00,000.00,029.4,027.8,000.0,038.0,031.0,29.3,0000.0,0008.56,0004.70,0004.30
2023-08-05 14:18:00,SystemResetWarning,0835.5,5.00,000.00,029.4,027.9,000.0,038.0,031.1,29.6,0000.0,0008.68,0004.74,0004.32
2023-08-05 14:19:00,SystemResetWarning,0835.5,5.00,000.00,029.4,028.0,000.0,038.0,031.1,29.4,0000.0,0008.64,0004.76,0004.34
2023-08-05 14:20:00,SystemResetWarning,0835.5,5.00,000.00,029.5,028.1,000.0,038.0,031.1,28.8,0000.0,0009.21,0004.80,0004.36
2023-08-05 14:21:00,SystemResetWarning,0835.5,5.01,000.00,029.5,028.2,000.0,038.1,031.2,29.4,0000.0,0009.55,0004.87,0004.40
2023-08-05 14:22:00,SystemResetWarning,0835.5,4.99,000.00,029.5,028.3,000.0,038.1,031.2,30.1,0000.0,0009.50,0004.88,0004.41
2023-08-05 14:23:00,SystemResetWarning,0835.5,4.99,000.00,029.6,028.4,000.0,038.1,031.2,30.8,0000.0,0009.37,0004.86,0004.42
2023-08-05 14:24:00,SystemResetWarning,0835.5,5.01,000.00,029.6,028.4,000.0,038.1,031.3,30.5,0000.0,0009.32,0004.88,0004.44
2023-08-05 14:25:00,SystemResetWarning,0835.5,5.00,000.00,029.6,028.5,000.0,038.1,031.3,30.6,0000.0,0008.75,0004.87,0004.46
2023-08-05 14:26:00,SystemResetWarning,0835.5,5.01,000.00,029.7,028.5,000.0,038.2,031.3,30.8,0000.0,0009.17,0004.88,0004.47
2023-08-05 14:27:00,SystemResetWarning,0835.5,4.99,000.00,029.7,027.6,000.0,038.1,031.3,30.9,0000.0,0009.74,0004.88,0004.47
2023-08-05 14:28:00,SystemResetWarning,0835.5,4.99,000.00,029.6,025.8,000.0,037.9,031.0,30.5,0000.0,0009.47,0004.90,0004.48
2023-08-05 14:29:00,SystemResetWarning,0835.5,5.02,000.00,029.5,025.1,000.0,037.8,030.8,30.4,0000.0,0009.35,0004.86,0004.48
2023-08-05 14:30:00,SystemResetWarning,0835.4,4.99,000.00,029.4,025.2,000.0,037.8,030.6,30.3,0000.0,0009.49,0004.88,0004.48
2023-08-05 14:31:00,SystemResetWarning,0835.4,5.00,000.00,029.3,025.6,000.0,037.9,030.6,30.8,0000.0,0008.98,0004.83,0004.47
2023-08-05 14:32:00,SystemResetWarning,0835.4,5.00,000.00,029.3,026.0,000.0,037.9,030.7,30.8,0000.0,0008.55,0004.77,0004.45
2023-08-05 14:33:00,SystemResetWarning,0835.4,5.00,000.00,029.3,026.4,000.0,037.9,030.7,30.7,0000.0,0008.57,0004.76,0004.45
2023-08-05 14:34:00,SystemResetWarning,0835.5,4.99,000.00,029.3,026.8,000.0,037.9,030.8,29.4,0000.0,0008.70,0004.79,0004.45
2023-08-05 14:35:00,SystemResetWarning,0835.5,5.00,000.00,029.3,027.1,000.0,037.9,030.9,28.2,0000.0,0009.19,0004.81,0004.45
2023-08-05 14:36:00,SystemResetWarning,0835.5,5.00,000.00,029.3,027.3,000.0,037.9,030.9,28.2,0000.0,0009.52,0004.83,0004.45
2023-08-05 14:37:00,SystemResetWarning,0835.5,5.00,000.00,029.3,027.5,000.0,037.9,031.0,29.3,0000.0,0009.09,0004.84,0004.45
2023-08-05 14:38:00,SystemResetWarning,0835.4,5.00,000.00,029.3,027.7,000.0,037.9,031.0,30.1,0000.0,0008.46,0004.83,0004.44
2023-08-05 14:39:00,SystemResetWarning,0835.4,5.00,000.00,029.4,027.9,000.0,037.9,031.0,29.8,0000.0,0008.46,0004.84,0004.43
2023-08-05 14:40:00,SystemResetWarning,0835.4,5.00,000.00,029.4,028.0,000.0,038.0,031.1,29.9,0000.0,0008.45,0004.84,0004.43
2023-08-05 14:41:00,SystemResetWarning,0835.4,5.00,000.00,029.4,028.1,000.0,038.0,031.1,29.3,0000.0,0008.32,0004.83,0004.43
2023-08-05 14:42:00,SystemResetWarning,0835.3,5.00,000.00,029.5,028.2,000.0,038.0,031.2,29.5,0000.0,0009.29,0004.87,0004.43
2023-08-05 14:43:00,SystemResetWarning,0835.3,5.00,000.00,029.5,028.3,000.0,038.0,031.2,30.0,0000.0,0009.36,0004.89,0004.44
2023-08-05 14:44:00,SystemResetWarning,0835.4,4.99,000.00,029.5,028.4,000.0,038.0,031.2,30.9,0000.0,0009.54,0004.92,0004.43
2023-08-05 14:45:00,SystemResetWarning,0835.4,4.99,000.00,029.6,027.8,000.0,038.0,031.2,30.2,0000.0,0009.92,0004.90,0004.44
2023-08-05 14:46:00,SystemResetWarning,0835.3,5.01,000.00,029.5,026.1,000.0,037.9,030.9,29.9,0000.0,0009.51,0004.88,0004.44
2023-08-05 14:47:00,SystemResetWarning,0835.3,5.00,000.00,029.5,025.2,000.0,037.7,030.8,30.8,0000.0,0009.48,0004.87,0004.44
2023-08-05 14:48:00,SystemResetWarning,0835.3,5.01,000.00,029.4,025.3,000.0,037.7,030.6,30.5,0000.0,0009.65,0004.88,0004.44
2023-08-05 14:49:00,SystemResetWarning,0835.3,5.01,000.00,029.3,025.6,000.0,037.8,030.5,31.0,0000.0,0009.76,0004.90,0004.45
2023-08-05 14:50:00,SystemResetWarning,0835.4,4.99,000.00,029.2,026.0,000.0,037.8,030.6,30.6,0000.0,0009.90,0004.93,0004.45
2023-08-05 14:51:00,SystemResetWarning,0835.4,5.00,000.00,029.2,026.4,000.0,037.8,030.7,30.0,0000.0,0009.89,0004.95,0004.46
2023-08-05 14:52:00,SystemResetWarning,0835.4,5.00,000.00,029.2,026.8,000.0,037.8,030.8,30.2,0000.0,0010.04,0004.96,0004.45
2023-08-05 14:53:00,SystemResetWarning,0835.3,5.00,000.00,029.2,027.1,000.0,037.8,030.9,31.2,0000.0,0009.15,0004.95,0004.45
2023-08-05 14:54:00,SystemResetWarning,0835.5,4.99,000.00,029.3,027.4,000.0,037.8,030.9,31.4,0000.0,0009.18,0004.97,0004.45
2023-08-05 14:55:00,SystemResetWarning,0835.3,4.99,000.00,029.3,027.6,000.0,037.8,030.9,31.6,0000.0,0009.06,0004.96,0004.45
2023-08-05 14:56:00,SystemResetWarning,0835.3,5.00,000.00,029.3,027.8,000.0,037.9,031.0,31.9,0000.0,0008.65,0004.97,0004.45
2023-08-05 14:57:00,SystemResetWarning,0835.2,5.00,000.00,029.3,027.9,000.0,037.9,031.0,32.0,0000.0,0008.87,0004.98,0004.44
2023-08-05 14:58:00,SystemResetWarning,0835.2,5.01,000.00,029.4,028.1,000.0,037.9,031.1,32.3,0000.0,0008.97,0004.96,0004.43
2023-08-05 14:59:00,SystemResetWarning,0835.2,5.01,000.00,029.4,028.2,000.0,037.9,031.1,31.9,0000.0,0008.84,0004.96,0004.43
